• In Germany
  • List of Countries
  • For 7 days
  • Water Temperature
  • Satellite Maps
  • Weather Map
  • Weather Widgets
  • user-avatar
    Login

    Hourly Weather Mingachevir

    Today, 23 March, Thursday

    Time Temperature Precipitation Wind Pressure Humidity
    00:00 +7°C° 0 mm 1 mps 754 mmHg 55%
    01:00 +6°C° 0 mm 1 mps 754 mmHg 57%
    02:00 +6°C° 0 mm 1 mps 754 mmHg 60%
    03:00 +4°C° 0 mm 0 mps 754 mmHg 57%
    04:00 +4°C° 0 mm 0 mps 754 mmHg 58%
    05:00 +5°C° 0 mm 1 mps 755 mmHg 60%
    06:00 +5°C° 0 mm 1 mps 755 mmHg 61%
    07:00 +7°C° 0 mm 1 mps 755 mmHg 55%
    08:00 +9°C° 0 mm 1 mps 755 mmHg 49%
    09:00 +11°C° 0 mm 1 mps 755 mmHg 42%
    10:00 +12°C° 0 mm 1 mps 755 mmHg 40%
    11:00 +13°C° 0 mm 1 mps 754 mmHg 38%
    12:00 +14°C° 0 mm 1 mps 754 mmHg 36%
    13:00 +14°C° 0 mm 1 mps 754 mmHg 36%
    14:00 +15°C° 0 mm 1 mps 754 mmHg 36%
    15:00 +15°C° 0 mm 1 mps 754 mmHg 36%
    16:00 +14°C° 0 mm 1 mps 754 mmHg 42%
    17:00 +13°C° 0 mm 2 mps 754 mmHg 49%
    18:00 +10°C° 0 mm 2 mps 755 mmHg 55%
    19:00 +9°C° 0.1 mm 2 mps 755 mmHg 62%
    20:00 +9°C° 0.1 mm 2 mps 756 mmHg 69%
    21:00 +8°C° 0.1 mm 2 mps 757 mmHg 76%
    22:00 +7°C° 0 mm 2 mps 757 mmHg 81%
    23:00 +7°C° 0 mm 2 mps 757 mmHg 85%

    Tomorrow, 24 March, Friday

    Time Temperature Precipitation Wind Pressure Humidity
    00:00 +6°C° 0 mm 2 mps 758 mmHg 89%
    01:00 +7°C° 0 mm 1 mps 758 mmHg 91%
    02:00 +7°C° 0 mm 1 mps 758 mmHg 92%
    03:00 +6°C° 0 mm 1 mps 758 mmHg 93%
    04:00 +6°C° 0 mm 1 mps 758 mmHg 93%
    05:00 +6°C° 0 mm 1 mps 759 mmHg 93%
    06:00 +6°C° 0 mm 1 mps 759 mmHg 93%
    07:00 +7°C° 0 mm 1 mps 759 mmHg 86%
    08:00 +9°C° 0 mm 1 mps 759 mmHg 79%
    09:00 +10°C° 0 mm 2 mps 759 mmHg 71%
    10:00 +12°C° 0 mm 2 mps 759 mmHg 66%
    11:00 +13°C° 0 mm 2 mps 758 mmHg 60%
    12:00 +14°C° 0 mm 2 mps 758 mmHg 55%
    13:00 +13°C° 0 mm 3 mps 758 mmHg 53%
    14:00 +14°C° 0 mm 3 mps 757 mmHg 51%
    15:00 +14°C° 0 mm 3 mps 757 mmHg 50%
    16:00 +13°C° 0 mm 3 mps 757 mmHg 55%
    17:00 +12°C° 0 mm 3 mps 758 mmHg 61%
    18:00 +11°C° 0 mm 3 mps 758 mmHg 66%
    19:00 +10°C° 0 mm 3 mps 759 mmHg 70%
    20:00 +9°C° 0 mm 3 mps 759 mmHg 74%
    21:00 +7°C° 0 mm 4 mps 759 mmHg 78%
    22:00 +8°C° 0 mm 3 mps 759 mmHg 81%
    23:00 +7°C° 0 mm 3 mps 759 mmHg 84%

    Day after tomorrow, 25 March, Saturday

    Time Temperature Precipitation Wind Pressure Humidity
    00:00 +6°C° 0 mm 2 mps 759 mmHg 87%
    01:00 +5°C° 0 mm 2 mps 759 mmHg 89%
    02:00 +6°C° 0 mm 1 mps 758 mmHg 91%
    03:00 +4°C° 0 mm 0 mps 758 mmHg 93%
    04:00 +4°C° 0 mm 0 mps 758 mmHg 94%
    05:00 +4°C° 0 mm 0 mps 758 mmHg 94%
    06:00 +4°C° 0 mm 0 mps 758 mmHg 94%
    07:00 +6°C° 0 mm 0 mps 757 mmHg 85%
    08:00 +9°C° 0 mm 1 mps 757 mmHg 75%
    09:00 +11°C° 0 mm 1 mps 757 mmHg 66%
    10:00 +12°C° 0 mm 1 mps 756 mmHg 61%
    11:00 +14°C° 0 mm 1 mps 755 mmHg 55%
    12:00 +15°C° 0 mm 2 mps 754 mmHg 50%
    13:00 +16°C° 0 mm 2 mps 754 mmHg 48%
    14:00 +16°C° 0 mm 2 mps 753 mmHg 46%
    15:00 +17°C° 0 mm 2 mps 752 mmHg 45%
    16:00 +15°C° 0 mm 1 mps 752 mmHg 50%
    17:00 +14°C° 0 mm 1 mps 752 mmHg 55%
    18:00 +12°C° 0 mm 1 mps 752 mmHg 61%
    19:00 +12°C° 0 mm 1 mps 753 mmHg 63%
    20:00 +10°C° 0 mm 2 mps 753 mmHg 66%
    21:00 +9°C° 0 mm 2 mps 753 mmHg 68%
    22:00 +8°C° 0 mm 2 mps 753 mmHg 72%
    23:00 +8°C° 0 mm 2 mps 753 mmHg 75%

    26 March, Sunday

    Time Temperature Precipitation Wind Pressure Humidity
    00:00 +7°C° 0 mm 2 mps 753 mmHg 79%
    01:00 +8°C° 0 mm 1 mps 753 mmHg 81%
    02:00 +7°C° 0 mm 1 mps 753 mmHg 84%
    03:00 +5°C° 0 mm 0 mps 753 mmHg 87%
    04:00 +7°C° 0 mm 1 mps 753 mmHg 86%
    05:00 +7°C° 0 mm 1 mps 753 mmHg 85%
    06:00 +7°C° 0 mm 1 mps 753 mmHg 83%
    07:00 +9°C° 0 mm 1 mps 753 mmHg 72%
    08:00 +12°C° 0 mm 2 mps 752 mmHg 61%
    09:00 +14°C° 0 mm 2 mps 752 mmHg 49%
    10:00 +16°C° 0 mm 2 mps 752 mmHg 45%
    11:00 +17°C° 0 mm 3 mps 752 mmHg 41%
    12:00 +19°C° 0 mm 3 mps 751 mmHg 38%
    13:00 +19°C° 0 mm 3 mps 751 mmHg 36%
    14:00 +20°C° 0 mm 3 mps 751 mmHg 35%
    15:00 +20°C° 0 mm 3 mps 751 mmHg 34%
    16:00 +19°C° 0 mm 2 mps 751 mmHg 38%
    17:00 +17°C° 0 mm 2 mps 751 mmHg 43%
    18:00 +15°C° 0 mm 1 mps 752 mmHg 47%
    19:00 +14°C° 0 mm 1 mps 752 mmHg 47%
    20:00 +13°C° 0 mm 1 mps 753 mmHg 47%
    21:00 +12°C° 0 mm 1 mps 753 mmHg 48%
    22:00 +12°C° 0 mm 1 mps 754 mmHg 47%
    23:00 +11°C° 0 mm 1 mps 754 mmHg 47%

    27 March, Monday

    Time Temperature Precipitation Wind Pressure Humidity
    00:00 +10°C° 0 mm 2 mps 754 mmHg 46%
    01:00 +11°C° 0 mm 1 mps 754 mmHg 49%
    02:00 +10°C° 0 mm 1 mps 754 mmHg 51%
    03:00 +9°C° 0 mm 1 mps 753 mmHg 54%
    04:00 +9°C° 0 mm 1 mps 754 mmHg 55%
    05:00 +9°C° 0 mm 1 mps 754 mmHg 57%
    06:00 +8°C° 0 mm 1 mps 754 mmHg 58%
    07:00 +11°C° 0 mm 1 mps 754 mmHg 51%
    08:00 +14°C° 0 mm 1 mps 754 mmHg 43%
    09:00 +16°C° 0 mm 1 mps 754 mmHg 36%
    10:00 +18°C° 0 mm 1 mps 753 mmHg 34%
    11:00 +20°C° 0 mm 1 mps 753 mmHg 32%
    12:00 +21°C° 0 mm 1 mps 752 mmHg 29%
    13:00 +22°C° 0 mm 1 mps 752 mmHg 29%
    14:00 +22°C° 0 mm 1 mps 751 mmHg 28%
    15:00 +22°C° 0 mm 1 mps 751 mmHg 28%
    16:00 +21°C° 0 mm 1 mps 751 mmHg 33%
    17:00 +19°C° 0 mm 1 mps 751 mmHg 38%
    18:00 +16°C° 0 mm 1 mps 751 mmHg 44%
    19:00 +15°C° 0 mm 1 mps 752 mmHg 45%
    20:00 +14°C° 0 mm 1 mps 752 mmHg 47%
    21:00 +13°C° 0 mm 1 mps 753 mmHg 49%
    22:00 +12°C° 0 mm 1 mps 753 mmHg 52%
    23:00 +12°C° 0 mm 1 mps 753 mmHg 55%

    28 March, Tuesday

    Time Temperature Precipitation Wind Pressure Humidity
    00:00 +11°C° 0 mm 1 mps 752 mmHg 58%
    01:00 +11°C° 0 mm 1 mps 752 mmHg 62%
    02:00 +10°C° 0 mm 1 mps 752 mmHg 65%
    03:00 +9°C° 0 mm 1 mps 752 mmHg 69%
    04:00 +9°C° 0 mm 1 mps 752 mmHg 69%
    05:00 +9°C° 0 mm 1 mps 752 mmHg 68%
    06:00 +9°C° 0 mm 1 mps 752 mmHg 68%
    07:00 +12°C° 0 mm 1 mps 752 mmHg 57%
    08:00 +15°C° 0 mm 2 mps 752 mmHg 47%
    09:00 +17°C° 0 mm 2 mps 751 mmHg 37%
    10:00 +19°C° 0 mm 2 mps 751 mmHg 34%
    11:00 +20°C° 0 mm 3 mps 750 mmHg 30%
    12:00 +22°C° 0 mm 3 mps 750 mmHg 27%
    13:00 +22°C° 0 mm 3 mps 749 mmHg 27%
    14:00 +22°C° 0 mm 3 mps 749 mmHg 27%
    15:00 +23°C° 0 mm 4 mps 748 mmHg 26%
    16:00 +21°C° 0 mm 3 mps 748 mmHg 31%
    17:00 +19°C° 0 mm 2 mps 749 mmHg 36%
    18:00 +18°C° 0 mm 2 mps 749 mmHg 40%
    19:00 +17°C° 0 mm 2 mps 749 mmHg 40%
    20:00 +16°C° 0 mm 2 mps 750 mmHg 41%
    21:00 +15°C° 0 mm 2 mps 750 mmHg 41%
    22:00 +15°C° 0 mm 2 mps 750 mmHg 41%
    23:00 +14°C° 0 mm 3 mps 750 mmHg 42%
    Show more